| time (UTC) | temp C | wind direction | speed KPH | gust KPH | rain 1hr cm | rain 24hr cm | rain mn cm | humidity % | barometer mb |
| 20260510095050 | 11 | 27 | 1.6 | 3.2 | 0.00 | 0.00 | 0.00 | 87 | 1011.7 |
| 20260510094552 | 11 | 42 | 0.0 | 3.2 | 0.00 | 0.00 | 0.00 | 87 | 1011.4 |
| 20260510094049 | 11 | 105 | 0.0 | 6.4 | 0.00 | 0.00 | 0.00 | 88 | 1011.4 |
| 20260510093549 | 11 | 288 | 0.0 | 6.4 | 0.00 | 0.00 | 0.00 | 89 | 1011.3 |
| 20260510093054 | 11 | 241 | 0.0 | 0.0 | 0.00 | 0.00 | 0.00 | 89 | 1011.3 |
| 20260510092550 | 11 | 241 | 0.0 | 0.0 | 0.00 | 0.00 | 0.00 | 89 | 1011.3 |
| 20260510092050 | 11 | 241 | 0.0 | 0.0 | 0.00 | 0.00 | 0.00 | 89 | 1011.2 |
| 20260510091548 | 11 | 241 | 0.0 | 0.0 | 0.00 | 0.00 | 0.00 | 89 | 1011.1 |
| 20260510091048 | 11 | 241 | 0.0 | 0.0 | 0.00 | 0.00 | 0.00 | 89 | 1011.0 |
| 20260510090548 | 11 | 241 | 0.0 | 0.0 | 0.00 | 0.00 | 0.00 | 89 | 1011.0 |
| 20260510090049 | 11 | 241 | 0.0 | 0.0 | 0.00 | 0.00 | 0.00 | 89 | 1010.9 |
| 20260510085549 | 11 | 212 | 0.0 | 0.0 | 0.00 | 0.00 | 0.00 | 89 | 1010.9 |
| 20260510085051 | 11 | 212 | 0.0 | 0.0 | 0.00 | 0.00 | 0.00 | 89 | 1010.9 |
| 20260510084547 | 11 | 212 | 0.0 | 0.0 | 0.00 | 0.00 | 0.00 | 89 | 1010.9 |
| 20260510084047 | 11 | 212 | 0.0 | 0.0 | 0.00 | 0.00 | 0.00 | 89 | 1010.8 |
| 20260510083551 | 11 | 212 | 0.0 | 0.0 | 0.00 | 0.00 | 0.00 | 89 | 1010.8 |
| 20260510083058 | 11 | 212 | 0.0 | 0.0 | 0.00 | 0.00 | 0.00 | 88 | 1010.8 |
| 20260510082547 | 11 | 212 | 0.0 | 0.0 | 0.00 | 0.00 | 0.00 | 88 | 1010.8 |
| 20260510082047 | 11 | 212 | 0.0 | 0.0 | 0.00 | 0.00 | 0.00 | 88 | 1010.8 |
| 20260510081547 | 11 | 212 | 0.0 | 0.0 | 0.00 | 0.00 | 0.00 | 88 | 1010.8 |
| 20260510081046 | 11 | 212 | 0.0 | 1.6 | 0.00 | 0.00 | 0.00 | 88 | 1010.8 |
| 20260510080546 | 11 | 223 | 0.0 | 1.6 | 0.00 | 0.00 | 0.00 | 88 | 1010.8 |
| 20260510080046 | 11 | 161 | 0.0 | 3.2 | 0.00 | 0.00 | 0.00 | 88 | 1010.8 |
| 20260510075549 | 11 | 147 | 0.0 | 3.2 | 0.00 | 0.00 | 0.00 | 89 | 1010.7 |
| 20260510075047 | 11 | 187 | 0.0 | 0.0 | 0.00 | 0.00 | 0.00 | 88 | 1010.7 |
| 20260510074546 | 11 | 187 | 0.0 | 6.4 | 0.00 | 0.00 | 0.00 | 89 | 1010.7 |
| 20260510074047 | 11 | 252 | 0.0 | 6.4 | 0.00 | 0.00 | 0.00 | 90 | 1010.6 |
| 20260510073545 | 11 | 211 | 0.0 | 3.2 | 0.00 | 0.00 | 0.00 | 90 | 1010.7 |
| 20260510073044 | 11 | 211 | 0.0 | 3.2 | 0.00 | 0.00 | 0.00 | 90 | 1010.8 |
| 20260510072544 | 11 | 211 | 0.0 | 1.6 | 0.00 | 0.00 | 0.00 | 90 | 1010.8 |
| 20260510072043 | 10 | 211 | 0.0 | 0.0 | 0.00 | 0.00 | 0.00 | 90 | 1010.8 |
| 20260510071544 | 10 | 211 | 0.0 | 0.0 | 0.00 | 0.00 | 0.00 | 90 | 1010.8 |
| 20260510071043 | 10 | 211 | 0.0 | 1.6 | 0.00 | 0.00 | 0.00 | 90 | 1010.8 |
| 20260510070543 | 10 | 211 | 0.0 | 1.6 | 0.00 | 0.00 | 0.00 | 90 | 1010.9 |
| 20260510070045 | 10 | 202 | 0.0 | 1.6 | 0.00 | 0.00 | 0.00 | 90 | 1010.8 |
| 20260510065546 | 10 | 238 | 0.0 | 0.0 | 0.00 | 0.00 | 0.00 | 89 | 1010.8 |
| 20260510065042 | 10 | 238 | 0.0 | 0.0 | 0.00 | 0.00 | 0.00 | 89 | 1010.7 |
| 20260510064542 | 10 | 238 | 0.0 | 0.0 | 0.00 | 0.00 | 0.00 | 89 | 1010.8 |
| 20260510064042 | 10 | 238 | 0.0 | 1.6 | 0.00 | 0.00 | 0.00 | 89 | 1010.8 |
| 20260510063543 | 10 | 238 | 0.0 | 1.6 | 0.00 | 0.00 | 0.00 | 89 | 1010.8 |
| 20260510063042 | 10 | 227 | 0.0 | 0.0 | 0.00 | 0.00 | 0.00 | 89 | 1010.8 |
| 20260510062541 | 10 | 227 | 0.0 | 0.0 | 0.00 | 0.00 | 0.00 | 89 | 1010.8 |
| 20260510062045 | 10 | 229 | 0.0 | 0.0 | 0.00 | 0.00 | 0.00 | 89 | 1010.9 |
| 20260510061541 | 10 | 229 | 0.0 | 0.0 | 0.00 | 0.00 | 0.00 | 89 | 1010.8 |
| 20260510061041 | 10 | 229 | 0.0 | 0.0 | 0.00 | 0.00 | 0.00 | 89 | 1010.9 |
| 20260510060541 | 11 | 229 | 0.0 | 0.0 | 0.00 | 0.00 | 0.00 | 89 | 1010.8 |
| 20260510060040 | 11 | 229 | 0.0 | 0.0 | 0.00 | 0.00 | 0.00 | 88 | 1010.9 |
| 20260510055540 | 11 | 229 | 0.0 | 0.0 | 0.00 | 0.00 | 0.00 | 88 | 1011.0 |
| 20260510055039 | 11 | 229 | 0.0 | 0.0 | 0.00 | 0.00 | 0.00 | 88 | 1011.0 |
| 20260510054540 | 11 | 229 | 0.0 | 0.0 | 0.00 | 0.00 | 0.00 | 88 | 1011.1 |
| 20260510054039 | 11 | 229 | 0.0 | 0.0 | 0.00 | 0.00 | 0.00 | 88 | 1011.1 |
| 20260510053540 | 11 | 229 | 0.0 | 0.0 | 0.00 | 0.00 | 0.00 | 88 | 1011.1 |
| 20260510053038 | 11 | 229 | 0.0 | 0.0 | 0.00 | 0.00 | 0.00 | 88 | 1011.3 |
| 20260510052538 | 11 | 229 | 0.0 | 0.0 | 0.00 | 0.00 | 0.00 | 88 | 1011.3 |
| 20260510052038 | 11 | 229 | 0.0 | 0.0 | 0.00 | 0.00 | 0.00 | 88 | 1011.3 |
| 20260510051537 | 11 | 229 | 0.0 | 0.0 | 0.00 | 0.00 | 0.00 | 88 | 1011.4 |
| 20260510051040 | 11 | 229 | 0.0 | 0.0 | 0.00 | 0.00 | 0.00 | 88 | 1011.4 |
| 20260510050538 | 11 | 229 | 0.0 | 0.0 | 0.00 | 0.00 | 0.00 | 87 | 1011.3 |
| 20260510050036 | 11 | 229 | 0.0 | 0.0 | 0.00 | 0.00 | 0.00 | 87 | 1011.2 |
| 20260510045535 | 11 | 229 | 0.0 | 0.0 | 0.00 | 0.00 | 0.00 | 87 | 1011.2 |
| 20260510045034 | 11 | 229 | 0.0 | 0.0 | 0.00 | 0.00 | 0.00 | 86 | 1011.2 |
| 20260510044533 | 11 | 229 | 0.0 | 0.0 | 0.00 | 0.00 | 0.00 | 86 | 1011.2 |
| 20260510044034 | 11 | 229 | 0.0 | 0.0 | 0.00 | 0.00 | 0.00 | 86 | 1011.2 |
| 20260510043532 | 11 | 229 | 0.0 | 0.0 | 0.00 | 0.00 | 0.00 | 86 | 1011.3 |
| 20260510043031 | 11 | 229 | 0.0 | 0.0 | 0.00 | 0.00 | 0.00 | 85 | 1011.2 |
| 20260510042531 | 11 | 229 | 0.0 | 0.0 | 0.00 | 0.00 | 0.00 | 85 | 1011.1 |
| 20260510042029 | 11 | 229 | 0.0 | 0.0 | 0.00 | 0.00 | 0.00 | 84 | 1011.1 |
| 20260510041528 | 11 | 229 | 0.0 | 0.0 | 0.00 | 0.00 | 0.00 | 84 | 1011.0 |
| 20260510041027 | 11 | 229 | 0.0 | 1.6 | 0.00 | 0.00 | 0.00 | 84 | 1011.0 |
| 20260510040527 | 11 | 229 | 0.0 | 1.6 | 0.00 | 0.00 | 0.00 | 84 | 1010.9 |
| 20260510040026 | 11 | 229 | 0.0 | 1.6 | 0.00 | 0.00 | 0.00 | 85 | 1010.8 |
| 20260510035526 | 11 | 229 | 0.0 | 3.2 | 0.00 | 0.00 | 0.00 | 85 | 1010.7 |
| 20260510035026 | 11 | 205 | 0.0 | 0.0 | 0.00 | 0.00 | 0.00 | 85 | 1010.7 |
| 20260510034528 | 11 | 205 | 0.0 | 0.0 | 0.00 | 0.00 | 0.00 | 84 | 1010.7 |
| 20260510034027 | 11 | 205 | 0.0 | 0.0 | 0.00 | 0.00 | 0.00 | 85 | 1010.7 |
| 20260510033526 | 11 | 205 | 0.0 | 0.0 | 0.00 | 0.00 | 0.00 | 84 | 1010.7 |
| 20260510033025 | 11 | 205 | 0.0 | 0.0 | 0.00 | 0.00 | 0.00 | 84 | 1010.7 |
| 20260510032528 | 11 | 205 | 0.0 | 0.0 | 0.00 | 0.00 | 0.00 | 83 | 1010.7 |
| 20260510032026 | 11 | 205 | 0.0 | 0.0 | 0.00 | 0.00 | 0.00 | 83 | 1010.6 |
| 20260510031524 | 11 | 205 | 0.0 | 0.0 | 0.00 | 0.00 | 0.00 | 84 | 1010.6 |
| 20260510031024 | 11 | 205 | 0.0 | 0.0 | 0.00 | 0.00 | 0.00 | 83 | 1010.6 |
| 20260510030523 | 11 | 205 | 0.0 | 0.0 | 0.00 | 0.00 | 0.00 | 83 | 1010.4 |
| 20260510030025 | 11 | 205 | 0.0 | 0.0 | 0.00 | 0.00 | 0.00 | 83 | 1010.4 |
| 20260510025525 | 11 | 205 | 0.0 | 0.0 | 0.00 | 0.00 | 0.00 | 83 | 1010.3 |
| 20260510025023 | 11 | 205 | 0.0 | 0.0 | 0.00 | 0.00 | 0.00 | 83 | 1010.3 |
| 20260510024524 | 11 | 205 | 0.0 | 0.0 | 0.00 | 0.00 | 0.00 | 83 | 1010.2 |
| 20260510024022 | 12 | 205 | 0.0 | 0.0 | 0.00 | 0.00 | 0.00 | 82 | 1010.3 |
| 20260510023524 | 12 | 205 | 0.0 | 3.2 | 0.00 | 0.00 | 0.00 | 83 | 1010.3 |
| 20260510023022 | 12 | 205 | 0.0 | 3.2 | 0.00 | 0.00 | 0.00 | 82 | 1010.3 |
| 20260510022523 | 12 | 276 | 0.0 | 0.0 | 0.00 | 0.00 | 0.00 | 82 | 1010.2 |
| 20260510022022 | 12 | 277 | 0.0 | 0.0 | 0.00 | 0.00 | 0.00 | 82 | 1010.2 |
| 20260510021528 | 12 | 277 | 0.0 | 0.0 | 0.00 | 0.00 | 0.00 | 82 | 1010.1 |
| 20260510021021 | 12 | 276 | 0.0 | 0.0 | 0.00 | 0.00 | 0.00 | 81 | 1010.1 |
| 20260510020521 | 12 | 276 | 0.0 | 0.0 | 0.00 | 0.00 | 0.00 | 81 | 1010.0 |
| 20260510020021 | 12 | 277 | 0.0 | 0.0 | 0.00 | 0.00 | 0.00 | 80 | 1010.0 |
| 20260510015523 | 12 | 277 | 0.0 | 0.0 | 0.00 | 0.00 | 0.00 | 79 | 1009.9 |
| 20260510015020 | 12 | 277 | 0.0 | 0.0 | 0.00 | 0.00 | 0.00 | 79 | 1009.9 |
| 20260510014520 | 12 | 277 | 0.0 | 0.0 | 0.00 | 0.00 | 0.00 | 78 | 1009.8 |
| 20260510014020 | 13 | 277 | 0.0 | 0.0 | 0.00 | 0.00 | 0.00 | 78 | 1009.8 |
| 20260510013521 | 13 | 277 | 0.0 | 0.0 | 0.00 | 0.00 | 0.00 | 78 | 1009.6 |
| 20260510013021 | 13 | 277 | 0.0 | 0.0 | 0.00 | 0.00 | 0.00 | 77 | 1009.6 |
| 20260510012520 | 13 | 277 | 0.0 | 0.0 | 0.00 | 0.00 | 0.00 | 76 | 1009.5 |
| 20260510012020 | 13 | 277 | 0.0 | 0.0 | 0.00 | 0.00 | 0.00 | 75 | 1009.4 |
| 20260510011522 | 13 | 276 | 0.0 | 0.0 | 0.00 | 0.00 | 0.00 | 75 | 1009.3 |
| 20260510011019 | 14 | 277 | 0.0 | 0.0 | 0.00 | 0.00 | 0.00 | 74 | 1009.1 |
| 20260510010519 | 14 | 277 | 0.0 | 0.0 | 0.00 | 0.00 | 0.00 | 73 | 1009.1 |
| 20260510010019 | 14 | 277 | 0.0 | 0.0 | 0.00 | 0.00 | 0.00 | 72 | 1009.1 |
| 20260510005519 | 15 | 277 | 0.0 | 0.0 | 0.00 | 0.00 | 0.00 | 72 | 1009.0 |
| 20260510005022 | 15 | 277 | 0.0 | 0.0 | 0.00 | 0.00 | 0.00 | 71 | 1008.8 |
| 20260510004518 | 15 | 277 | 0.0 | 1.6 | 0.00 | 0.00 | 0.00 | 70 | 1008.8 |
| 20260510004018 | 15 | 277 | 0.0 | 1.6 | 0.00 | 0.00 | 0.00 | 69 | 1008.7 |
| 20260510003518 | 16 | 277 | 0.0 | 1.6 | 0.00 | 0.00 | 0.00 | 69 | 1008.6 |
| 20260510003021 | 16 | 277 | 0.0 | 1.6 | 0.00 | 0.00 | 0.00 | 67 | 1008.5 |
| 20260510002519 | 16 | 277 | 0.0 | 1.6 | 0.00 | 0.00 | 0.00 | 67 | 1008.5 |
| 20260510002018 | 16 | 277 | 0.0 | 3.2 | 0.00 | 0.00 | 0.00 | 66 | 1008.4 |
| 20260510001517 | 16 | 277 | 0.0 | 3.2 | 0.00 | 0.00 | 0.00 | 66 | 1008.4 |
| 20260510001018 | 16 | 182 | 0.0 | 3.2 | 0.00 | 0.00 | 0.00 | 66 | 1008.3 |
| 20260510000518 | 17 | 257 | 0.0 | 3.2 | 0.00 | 0.00 | 0.00 | 65 | 1008.2 |
| 20260510000017 | 17 | 202 | 0.0 | 4.8 | 0.00 | 0.00 | 0.00 | 65 | 1008.2 |
| 20260509235517 | 17 | 190 | 0.0 | 4.8 | 0.00 | 0.00 | 0.00 | 63 | 1008.2 |
| 20260509235017 | 17 | 244 | 0.0 | 8.0 | 0.00 | 0.00 | 0.00 | 63 | 1008.2 |
| 20260509234529 | 17 | 232 | 0.0 | 8.0 | 0.00 | 0.00 | 0.00 | 62 | 1008.2 |
| 20260509234017 | 17 | 194 | 1.6 | 8.0 | 0.00 | 0.00 | 0.00 | 62 | 1008.1 |
| 20260509233517 | 17 | 255 | 3.2 | 9.7 | 0.00 | 0.00 | 0.00 | 61 | 1008.1 |
| 20260509233018 | 18 | 245 | 3.2 | 8.0 | 0.00 | 0.00 | 0.00 | 61 | 1008.1 |
| 20260509232516 | 18 | 229 | 3.2 | 17.7 | 0.00 | 0.00 | 0.00 | 60 | 1008.1 |
| 20260509232019 | 18 | 245 | 8.0 | 17.7 | 0.00 | 0.00 | 0.00 | 60 | 1008.0 |
| 20260509231519 | 18 | 239 | 1.6 | 8.0 | 0.00 | 0.00 | 0.00 | 60 | 1008.1 |
| 20260509231015 | 18 | 180 | 3.2 | 11.3 | 0.00 | 0.00 | 0.00 | 59 | 1008.0 |
| 20260509230515 | 18 | 237 | 8.0 | 14.5 | 0.00 | 0.00 | 0.00 | 58 | 1008.0 |
| 20260509230015 | 18 | 21 | 6.4 | 14.5 | 0.00 | 0.00 | 0.00 | 58 | 1008.1 |
| 20260509225515 | 19 | 291 | 6.4 | 14.5 | 0.00 | 0.00 | 0.00 | 57 | 1008.1 |
| 20260509225015 | 19 | 236 | 1.6 | 17.7 | 0.00 | 0.00 | 0.00 | 57 | 1008.2 |
| 20260509224528 | 19 | 296 | 9.7 | 17.7 | 0.00 | 0.00 | 0.00 | 56 | 1008.3 |
| 20260509224016 | 19 | 321 | 3.2 | 12.9 | 0.00 | 0.00 | 0.00 | 57 | 1008.3 |
| 20260509223517 | 19 | 229 | 3.2 | 11.3 | 0.00 | 0.00 | 0.00 | 57 | 1008.3 |
| 20260509223015 | 19 | 248 | 4.8 | 12.9 | 0.00 | 0.00 | 0.00 | 56 | 1008.3 |
| 20260509222514 | 19 | 203 | 4.8 | 14.5 | 0.00 | 0.00 | 0.00 | 57 | 1008.4 |
| 20260509222017 | 19 | 234 | 4.8 | 14.5 | 0.00 | 0.00 | 0.00 | 57 | 1008.5 |
| 20260509221514 | 19 | 267 | 4.8 | 14.5 | 0.00 | 0.00 | 0.00 | 57 | 1008.4 |
| 20260509221014 | 19 | 311 | 4.8 | 14.5 | 0.00 | 0.00 | 0.00 | 57 | 1008.5 |
| 20260509220515 | 19 | 245 | 6.4 | 17.7 | 0.00 | 0.00 | 0.00 | 57 | 1008.5 |
| 20260509220013 | 18 | 175 | 6.4 | 17.7 | 0.00 | 0.00 | 0.00 | 59 | 1008.5 |
| 20260509215514 | 18 | 285 | 6.4 | 16.1 | 0.00 | 0.00 | 0.00 | 57 | 1008.5 |
| 20260509215013 | 18 | 221 | 4.8 | 16.1 | 0.00 | 0.00 | 0.00 | 57 | 1008.5 |
| 20260509214513 | 18 | 182 | 8.0 | 16.1 | 0.00 | 0.00 | 0.00 | 57 | 1008.6 |
| 20260509214012 | 18 | 239 | 3.2 | 17.7 | 0.00 | 0.00 | 0.00 | 58 | 1008.6 |
| 20260509213512 | 18 | 259 | 8.0 | 17.7 | 0.00 | 0.00 | 0.00 | 60 | 1008.5 |
| 20260509213013 | 18 | 203 | 4.8 | 12.9 | 0.00 | 0.00 | 0.00 | 59 | 1008.6 |
| 20260509212512 | 18 | 229 | 3.2 | 11.3 | 0.00 | 0.00 | 0.00 | 60 | 1008.5 |
| 20260509212012 | 18 | 254 | 4.8 | 11.3 | 0.00 | 0.00 | 0.00 | 59 | 1008.5 |
| 20260509211512 | 18 | 257 | 1.6 | 16.1 | 0.00 | 0.00 | 0.00 | 59 | 1008.4 |
| 20260509211012 | 18 | 254 | 6.4 | 16.1 | 0.00 | 0.00 | 0.00 | 57 | 1008.4 |
| 20260509210512 | 18 | 181 | 4.8 | 12.9 | 0.00 | 0.00 | 0.00 | 57 | 1008.3 |
| 20260509210010 | 18 | 315 | 4.8 | 14.5 | 0.00 | 0.00 | 0.00 | 59 | 1008.3 |
| 20260509205511 | 18 | 250 | 4.8 | 14.5 | 0.00 | 0.00 | 0.00 | 58 | 1008.1 |
| 20260509205012 | 18 | 250 | 8.0 | 14.5 | 0.00 | 0.00 | 0.00 | 59 | 1008.0 |
| 20260509204511 | 18 | 121 | 3.2 | 8.0 | 0.00 | 0.00 | 0.00 | 59 | 1008.2 |
| 20260509204011 | 18 | 227 | 3.2 | 14.5 | 0.00 | 0.00 | 0.00 | 60 | 1008.2 |
| 20260509203510 | 18 | 227 | 3.2 | 14.5 | 0.00 | 0.00 | 0.00 | 58 | 1008.1 |
| 20260509203011 | 18 | 196 | 3.2 | 16.1 | 0.00 | 0.00 | 0.00 | 59 | 1008.1 |
| 20260509202510 | 19 | 258 | 6.4 | 19.3 | 0.00 | 0.00 | 0.00 | 56 | 1008.1 |
| 20260509202013 | 20 | 262 | 8.0 | 19.3 | 0.00 | 0.00 | 0.00 | 54 | 1008.1 |
| 20260509201507 | 20 | 214 | 6.4 | 16.1 | 0.00 | 0.00 | 0.00 | 58 | 1008.0 |
| 20260509201006 | 19 | 153 | 4.8 | 9.7 | 0.00 | 0.00 | 0.00 | 58 | 1007.9 |
| 20260509200506 | 18 | 222 | 3.2 | 12.9 | 0.00 | 0.00 | 0.00 | 59 | 1008.1 |
| 20260509200005 | 18 | 204 | 6.4 | 19.3 | 0.00 | 0.00 | 0.00 | 57 | 1008.2 |
| 20260509195509 | 18 | 198 | 8.0 | 14.5 | 0.00 | 0.00 | 0.00 | 58 | 1008.3 |
| 20260509195004 | 18 | 214 | 4.8 | 14.5 | 0.00 | 0.00 | 0.00 | 58 | 1008.3 |
| 20260509194504 | 18 | 219 | 3.2 | 14.5 | 0.00 | 0.00 | 0.00 | 60 | 1008.3 |
| 20260509194005 | 18 | 88 | 4.8 | 11.3 | 0.00 | 0.00 | 0.00 | 58 | 1008.2 |
| 20260509193505 | 18 | 262 | 4.8 | 12.9 | 0.00 | 0.00 | 0.00 | 58 | 1008.3 |
| 20260509193008 | 18 | 215 | 4.8 | 14.5 | 0.00 | 0.00 | 0.00 | 59 | 1008.3 |
| 20260509192504 | 18 | 292 | 4.8 | 14.5 | 0.00 | 0.00 | 0.00 | 58 | 1008.3 |
| 20260509192004 | 18 | 175 | 4.8 | 14.5 | 0.00 | 0.00 | 0.00 | 57 | 1008.3 |
| 20260509191503 | 18 | 226 | 4.8 | 14.5 | 0.00 | 0.00 | 0.00 | 59 | 1008.3 |
| 20260509191004 | 19 | 291 | 4.8 | 14.5 | 0.00 | 0.00 | 0.00 | 57 | 1008.3 |
| 20260509190503 | 19 | 165 | 1.6 | 11.3 | 0.00 | 0.00 | 0.00 | 57 | 1008.2 |
| 20260509190006 | 19 | 173 | 6.4 | 16.1 | 0.00 | 0.00 | 0.00 | 58 | 1008.3 |
| 20260509185502 | 19 | 234 | 3.2 | 11.3 | 0.00 | 0.00 | 0.00 | 58 | 1008.3 |
| 20260509185059 | 18 | 230 | 4.8 | 11.3 | 0.00 | 0.00 | 0.00 | 60 | 1008.3 |
| 20260509184602 | 18 | 202 | 3.2 | 17.7 | 0.00 | 0.00 | 0.00 | 62 | 1008.4 |
| 20260509184101 | 18 | 209 | 4.8 | 16.1 | 0.00 | 0.00 | 0.00 | 62 | 1008.3 |
| 20260509183559 | 17 | 213 | 4.8 | 12.9 | 0.00 | 0.00 | 0.00 | 62 | 1008.4 |
| 20260509183100 | 17 | 178 | 6.4 | 17.7 | 0.00 | 0.00 | 0.00 | 61 | 1008.4 |
| 20260509182557 | 17 | 202 | 6.4 | 17.7 | 0.00 | 0.00 | 0.00 | 61 | 1008.5 |
| 20260509182056 | 17 | 226 | 3.2 | 11.3 | 0.00 | 0.00 | 0.00 | 63 | 1008.5 |
| 20260509181609 | 17 | 203 | 4.8 | 16.1 | 0.00 | 0.00 | 0.00 | 60 | 1008.4 |
| 20260509181056 | 17 | 181 | 6.4 | 16.1 | 0.00 | 0.00 | 0.00 | 61 | 1008.5 |
| 20260509180556 | 17 | 232 | 3.2 | 14.5 | 0.00 | 0.00 | 0.00 | 62 | 1008.4 |
| 20260509180114 | 17 | 189 | 4.8 | 16.1 | 0.00 | 0.00 | 0.00 | 61 | 1008.5 |
| 20260509175555 | 17 | 300 | 8.0 | 16.1 | 0.00 | 0.00 | 0.00 | 61 | 1008.6 |
| 20260509175057 | 17 | 217 | 4.8 | 24.1 | 0.00 | 0.00 | 0.00 | 62 | 1008.5 |
| 20260509174556 | 17 | 300 | 9.7 | 24.1 | 0.00 | 0.00 | 0.00 | 58 | 1008.6 |
| 20260509174054 | 17 | 212 | 3.2 | 11.3 | 0.00 | 0.00 | 0.00 | 60 | 1008.6 |
| 20260509173555 | 17 | 198 | 4.8 | 24.1 | 0.00 | 0.00 | 0.00 | 60 | 1008.6 |
| 20260509173108 | 17 | 182 | 11.3 | 24.1 | 0.00 | 0.00 | 0.00 | 59 | 1008.7 |
| 20260509172553 | 18 | 194 | 6.4 | 20.9 | 0.00 | 0.00 | 0.00 | 59 | 1008.7 |
| 20260509172053 | 18 | 264 | 6.4 | 20.9 | 0.00 | 0.00 | 0.00 | 59 | 1008.7 |
| 20260509171554 | 18 | 211 | 6.4 | 20.9 | 0.00 | 0.00 | 0.00 | 60 | 1008.7 |
| 20260509171054 | 18 | 292 | 8.0 | 24.1 | 0.00 | 0.00 | 0.00 | 57 | 1008.8 |
| 20260509170551 | 18 | 238 | 8.0 | 16.1 | 0.00 | 0.00 | 0.00 | 59 | 1008.7 |
| 20260509170054 | 17 | 262 | 6.4 | 17.7 | 0.00 | 0.00 | 0.00 | 59 | 1008.8 |
| 20260509165550 | 17 | 177 | 6.4 | 17.7 | 0.00 | 0.00 | 0.00 | 57 | 1008.8 |
| 20260509165050 | 17 | 271 | 9.7 | 17.7 | 0.00 | 0.00 | 0.00 | 58 | 1008.7 |
| 20260509164550 | 17 | 184 | 8.0 | 16.1 | 0.00 | 0.00 | 0.00 | 57 | 1008.8 |
| 20260509164052 | 17 | 257 | 8.0 | 20.9 | 0.00 | 0.00 | 0.00 | 58 | 1008.9 |
| 20260509163549 | 17 | 140 | 9.7 | 20.9 | 0.00 | 0.00 | 0.00 | 59 | 1009.0 |
| 20260509163046 | 16 | 257 | 8.0 | 16.1 | 0.00 | 0.00 | 0.00 | 62 | 1008.9 |
| 20260509162546 | 16 | 214 | 6.4 | 16.1 | 0.00 | 0.00 | 0.00 | 60 | 1009.0 |
| 20260509162046 | 16 | 244 | 8.0 | 16.1 | 0.00 | 0.00 | 0.00 | 59 | 1008.9 |
| 20260509161558 | 16 | 166 | 1.6 | 14.5 | 0.00 | 0.00 | 0.00 | 59 | 1009.0 |
| 20260509161045 | 16 | 248 | 8.0 | 14.5 | 0.00 | 0.00 | 0.00 | 57 | 1009.0 |
| 20260509160544 | 16 | 207 | 3.2 | 11.3 | 0.00 | 0.00 | 0.00 | 61 | 1009.0 |
| 20260509160044 | 16 | 235 | 3.2 | 9.7 | 0.00 | 0.00 | 0.00 | 59 | 1008.9 |
| 20260509155547 | 16 | 155 | 3.2 | 6.4 | 0.00 | 0.00 | 0.00 | 59 | 1008.9 |
| 20260509155041 | 16 | 192 | 1.6 | 4.8 | 0.00 | 0.00 | 0.00 | 62 | 1008.9 |
| 20260509154541 | 16 | 151 | 1.6 | 6.4 | 0.00 | 0.00 | 0.00 | 58 | 1009.0 |
| 20260509154039 | 15 | 286 | 3.2 | 8.0 | 0.00 | 0.00 | 0.00 | 59 | 1009.0 |
| 20260509153543 | 15 | 278 | 3.2 | 8.0 | 0.00 | 0.00 | 0.00 | 59 | 1009.0 |
| 20260509153040 | 15 | 265 | 3.2 | 12.9 | 0.00 | 0.00 | 0.00 | 59 | 1009.0 |
| 20260509152539 | 15 | 262 | 3.2 | 11.3 | 0.00 | 0.00 | 0.00 | 59 | 1009.1 |
| 20260509152039 | 15 | 156 | 1.6 | 8.0 | 0.00 | 0.00 | 0.00 | 60 | 1009.2 |
| 20260509151540 | 15 | 173 | 4.8 | 8.0 | 0.00 | 0.00 | 0.00 | 58 | 1009.2 |
| 20260509151037 | 15 | 188 | 3.2 | 9.7 | 0.00 | 0.00 | 0.00 | 59 | 1009.3 |
| 20260509150539 | 15 | 228 | 1.6 | 4.8 | 0.00 | 0.00 | 0.00 | 59 | 1009.2 |
| 20260509150137 | 15 | 232 | 1.6 | 4.8 | 0.00 | 0.00 | 0.00 | 59 | 1009.4 |
| 20260509145537 | 15 | 257 | 3.2 | 4.8 | 0.00 | 0.00 | 0.00 | 61 | 1009.5 |
| 20260509145040 | 15 | 275 | 0.0 | 6.4 | 0.00 | 0.00 | 0.00 | 60 | 1009.5 |
| 20260509144536 | 15 | 202 | 3.2 | 6.4 | 0.00 | 0.00 | 0.00 | 60 | 1009.7 |
| 20260509144035 | 15 | 259 | 0.0 | 6.4 | 0.00 | 0.00 | 0.00 | 60 | 1009.6 |
| 20260509143535 | 15 | 45 | 1.6 | 6.4 | 0.00 | 0.00 | 0.00 | 61 | 1009.5 |
| 20260509143039 | 15 | 42 | 0.0 | 6.4 | 0.00 | 0.00 | 0.00 | 65 | 1009.3 |
| 20260509142532 | 15 | 33 | 1.6 | 6.4 | 0.00 | 0.00 | 0.00 | 65 | 1009.3 |
| 20260509142032 | 15 | 23 | 1.6 | 6.4 | 0.00 | 0.00 | 0.00 | 66 | 1009.1 |
| 20260509141541 | 15 | 259 | 3.2 | 8.0 | 0.00 | 0.00 | 0.00 | 66 | 1009.1 |
| 20260509141029 | 15 | 351 | 3.2 | 8.0 | 0.00 | 0.00 | 0.00 | 65 | 1009.2 |
| 20260509140528 | 14 | 26 | 4.8 | 8.0 | 0.00 | 0.00 | 0.00 | 69 | 1009.1 |
| 20260509140027 | 14 | 31 | 3.2 | 9.7 | 0.00 | 0.00 | 0.00 | 69 | 1009.1 |
| 20260509135529 | 14 | 34 | 6.4 | 9.7 | 0.00 | 0.00 | 0.00 | 68 | 1009.1 |
| 20260509135024 | 14 | 24 | 3.2 | 9.7 | 0.00 | 0.00 | 0.00 | 71 | 1009.2 |
| 20260509134530 | 14 | 351 | 3.2 | 9.7 | 0.00 | 0.00 | 0.00 | 70 | 1009.2 |
| 20260509134026 | 13 | 31 | 4.8 | 12.9 | 0.00 | 0.00 | 0.00 | 69 | 1009.0 |
| 20260509133520 | 13 | 41 | 6.4 | 12.9 | 0.00 | 0.00 | 0.00 | 69 | 1009.2 |
| 20260509133020 | 13 | 41 | 3.2 | 6.4 | 0.00 | 0.00 | 0.00 | 71 | 1009.2 |
| 20260509132520 | 13 | 5 | 3.2 | 6.4 | 0.00 | 0.00 | 0.00 | 70 | 1009.2 |
| 20260509132018 | 13 | 34 | 3.2 | 8.0 | 0.00 | 0.00 | 0.00 | 72 | 1009.3 |
| 20260509131522 | 13 | 20 | 1.6 | 6.4 | 0.00 | 0.00 | 0.00 | 74 | 1009.4 |
| 20260509131014 | 13 | 22 | 3.2 | 6.4 | 0.00 | 0.00 | 0.00 | 72 | 1009.5 |
| 20260509130514 | 13 | 44 | 3.2 | 8.0 | 0.00 | 0.00 | 0.00 | 72 | 1009.6 |
| 20260509130017 | 13 | 41 | 1.6 | 4.8 | 0.00 | 0.00 | 0.00 | 73 | 1009.6 |
| 20260509125517 | 12 | 5 | 1.6 | 4.8 | 0.00 | 0.00 | 0.00 | 74 | 1009.6 |
| 20260509125011 | 12 | 38 | 0.0 | 4.8 | 0.00 | 0.00 | 0.00 | 72 | 1009.6 |
| 20260509124515 | 12 | 37 | 1.6 | 4.8 | 0.00 | 0.00 | 0.00 | 73 | 1009.5 |
| 20260509124010 | 12 | 24 | 3.2 | 4.8 | 0.00 | 0.00 | 0.00 | 71 | 1009.5 |
| 20260509123509 | 12 | 46 | 3.2 | 4.8 | 0.00 | 0.00 | 0.00 | 71 | 1009.5 |
| 20260509123013 | 12 | 26 | 1.6 | 4.8 | 0.00 | 0.00 | 0.00 | 71 | 1009.6 |
| 20260509122507 | 12 | 355 | 1.6 | 3.2 | 0.00 | 0.00 | 0.00 | 71 | 1009.4 |
| 20260509122006 | 12 | 355 | 0.0 | 3.2 | 0.00 | 0.00 | 0.00 | 73 | 1009.6 |
| 20260509121506 | 12 | 355 | 0.0 | 3.2 | 0.00 | 0.00 | 0.00 | 74 | 1009.6 |
| 20260509121006 | 11 | 355 | 0.0 | 3.2 | 0.00 | 0.00 | 0.00 | 74 | 1009.6 |
| 20260509120506 | 11 | 331 | 0.0 | 3.2 | 0.00 | 0.00 | 0.00 | 72 | 1009.6 |
| 20260509120012 | 11 | 320 | 0.0 | 3.2 | 0.00 | 0.00 | 0.00 | 75 | 1009.7 |
| 20260509115505 | 11 | 320 | 0.0 | 0.0 | 0.00 | 0.00 | 0.00 | 76 | 1009.6 |
| 20260509115006 | 11 | 303 | 0.0 | 0.0 | 0.00 | 0.00 | 0.00 | 78 | 1009.7 |
| 20260509114505 | 11 | 29 | 0.0 | 0.0 | 0.00 | 0.00 | 0.00 | 83 | 1009.7 |
| 20260509114008 | 10 | 29 | 0.0 | 0.0 | 0.00 | 0.00 | 0.00 | 80 | 1009.6 |
| 20260509113505 | 10 | 29 | 0.0 | 0.0 | 0.00 | 0.00 | 0.00 | 81 | 1009.7 |
| 20260509113004 | 10 | 29 | 0.0 | 0.0 | 0.00 | 0.00 | 0.00 | 79 | 1009.6 |
| 20260509112504 | 10 | 29 | 0.0 | 0.0 | 0.00 | 0.00 | 0.00 | 81 | 1009.6 |
| 20260509112008 | 10 | 29 | 0.0 | 0.0 | 0.00 | 0.00 | 0.00 | 81 | 1009.7 |
| 20260509111503 | 10 | 29 | 0.0 | 0.0 | 0.00 | 0.00 | 0.00 | 79 | 1009.7 |
| 20260509111003 | 10 | 29 | 0.0 | 0.0 | 0.00 | 0.00 | 0.00 | 80 | 1009.8 |
| 20260509110504 | 10 | 29 | 0.0 | 0.0 | 0.00 | 0.00 | 0.00 | 80 | 1009.8 |
| 20260509110003 | 10 | 29 | 0.0 | 0.0 | 0.00 | 0.00 | 0.00 | 79 | 1009.7 |
| 20260509105506 | 10 | 29 | 0.0 | 0.0 | 0.00 | 0.00 | 0.00 | 77 | 1009.7 |
| 20260509105004 | 10 | 29 | 0.0 | 0.0 | 0.00 | 0.00 | 0.00 | 77 | 1009.7 |
| 20260509104503 | 10 | 29 | 0.0 | 0.0 | 0.00 | 0.00 | 0.00 | 75 | 1009.6 |
| 20260509104002 | 10 | 29 | 0.0 | 0.0 | 0.00 | 0.00 | 0.00 | 76 | 1009.7 |
| 20260509103503 | 10 | 29 | 0.0 | 0.0 | 0.00 | 0.00 | 0.00 | 75 | 1009.7 |
| 20260509103002 | 10 | 29 | 0.0 | 0.0 | 0.00 | 0.00 | 0.00 | 75 | 1009.7 |
| 20260509102502 | 10 | 29 | 0.0 | 0.0 | 0.00 | 0.00 | 0.00 | 74 | 1009.7 |
| 20260509102001 | 10 | 29 | 0.0 | 0.0 | 0.00 | 0.00 | 0.00 | 74 | 1009.6 |
| 20260509101601 | 10 | 29 | 0.0 | 0.0 | 0.00 | 0.00 | 0.00 | 74 | 1009.6 |
| 20260509101059 | 10 | 29 | 0.0 | 0.0 | 0.00 | 0.00 | 0.00 | 73 | 1009.6 |
| 20260509100559 | 11 | 29 | 0.0 | 0.0 | 0.00 | 0.00 | 0.00 | 74 | 1009.5 |
| 20260509100100 | 11 | 29 | 0.0 | 0.0 | 0.00 | 0.00 | 0.00 | 72 | 1009.6 |
| 20260509095558 | 11 | 29 | 0.0 | 0.0 | 0.00 | 0.00 | 0.00 | 72 | 1009.6 |